GFSWCAN_sfc_thetae_000.txt.gz
Theta_e
307 307 308 308 308 308 308 308 308 308 309 310 310 311 312 312 312 309 305 308 303 296 297 299 298 294 295 294 288 292 291 292 290 285 285 284 284 286 286 288 287 286 284 283 286 282 282 298 298 292 295 298 299 300
307 307 307 307 308 308 308 308 308 308 309 309 309 310 311 312 311 310 302 308 308 299 297 303 303 303 301 300 295 295 292 292 293 288 288 288 284 286 284 279 289 283 290 286 288 289 295 297 299 299 299 300 298 299
306 306 306 307 307 307 307 307 308 308 309 309 309 309 310 310 310 309 304 306 304 297 296 297 295 301 305 303 304 292 294 296 295 297 291 289 284 288 281 283 285 288 293 289 288 293 294 297 298 299 301 299 300 299
306 306 306 306 306 306 307 307 307 308 309 309 309 309 309 309 309 309 304 306 303 298 289 292 302 299 304 303 302 302 299 299 298 296 291 287 286 291 285 287 286 289 291 288 288 291 294 296 298 299 301 302 301 301
305 306 306 306 306 306 306 306 307 307 309 309 309 309 309 309 309 308 306 306 306 297 288 291 298 300 302 302 300 301 299 297 295 291 289 286 290 289 289 288 285 290 289 287 287 294 294 294 297 301 300 301 302 300
305 305 306 305 305 306 306 307 308 309 309 309 309 309 308 308 308 303 295 303 306 305 294 287 298 297 299 300 298 298 298 297 295 292 290 291 294 290 285 283 289 292 293 294 291 295 295 296 298 299 299 300 304 305
304 304 305 305 305 306 308 308 308 309 309 309 309 309 308 308 305 297 294 300 306 305 293 286 287 296 298 298 297 297 298 296 294 292 290 288 290 291 287 282 288 291 293 293 295 296 293 296 295 299 300 302 304 305
304 304 304 305 305 306 308 308 308 309 310 310 310 309 308 307 305 299 303 306 306 298 295 285 287 290 298 293 291 297 294 295 293 290 290 288 290 289 283 288 291 292 293 293 294 296 295 297 298 299 300 301 300 299
303 304 304 305 305 306 307 309 309 309 309 309 308 307 305 303 299 302 306 306 305 298 286 285 285 284 295 292 292 292 293 286 292 287 288 288 286 282 286 288 290 292 292 292 295 296 297 296 296 296 298 299 298 299
304 303 304 305 306 307 307 308 308 308 308 307 305 299 295 298 305 304 300 293 291 289 288 285 289 287 292 291 289 288 287 285 283 286 290 285 284 289 291 292 293 293 294 295 292 292 293 293 294 295 296 297 299 296
304 304 305 306 307 307 307 308 308 307 306 304 298 294 300 303 298 294 289 287 289 286 289 290 289 286 293 287 287 289 287 286 281 285 284 283 282 288 292 293 295 296 296 295 293 293 293 294 294 295 295 297 298 295
304 304 305 306 307 307 308 307 307 304 303 300 298 301 297 292 289 286 285 289 286 284 289 287 288 289 291 294 288 287 284 286 279 288 283 280 285 290 292 292 293 294 294 294 295 294 293 294 296 296 295 297 299 295
304 304 305 306 306 306 307 307 306 306 303 302 293 290 288 288 282 282 280 284 284 289 290 289 286 289 290 290 287 286 282 281 288 282 280 283 289 292 292 293 293 294 293 292 292 293 294 295 296 296 296 293 293 293
304 305 306 306 307 306 306 306 305 303 298 291 287 282 284 284 284 286 286 286 290 289 289 289 288 287 289 285 286 282 285 285 278 277 278 285 290 292 293 293 293 292 293 290 290 292 293 294 294 295 296 293 293 292
305 306 306 306 305 305 305 305 303 302 295 287 288 281 284 289 290 290 291 290 291 292 290 288 287 288 286 283 284 284 281 277 280 279 285 290 291 291 291 292 292 292 291 288 289 290 292 293 292 292 293 292 292 292
305 305 304 304 304 305 305 304 301 298 291 288 286 284 288 288 287 289 290 289 293 291 291 289 284 282 282 283 282 280 278 278 282 287 290 291 290 291 291 292 292 291 288 288 288 291 291 291 289 289 291 291 291 291
304 300 304 304 304 304 303 300 298 291 289 286 285 289 287 287 287 288 290 289 292 288 283 285 281 280 286 282 280 283 282 285 288 290 291 291 289 290 291 292 291 289 287 287 289 289 289 289 289 289 288 289 291 291
300 303 304 303 302 302 300 298 293 289 285 287 285 287 290 290 288 288 289 290 289 287 287 284 287 281 279 277 280 286 288 290 291 290 290 291 291 291 292 290 290 288 286 287 287 288 290 289 288 288 289 290 290 290
303 303 303 301 300 297 293 292 292 285 286 288 288 289 289 289 290 291 291 291 291 291 288 287 282 280 282 286 286 287 288 289 288 288 290 291 292 292 291 290 289 285 286 287 287 288 288 288 288 289 289 289 288 288
304 304 302 301 300 294 289 290 293 287 283 287 290 288 288 288 290 290 289 288 289 287 285 283 283 286 287 288 289 288 288 289 288 286 286 290 291 290 288 288 286 288 289 289 289 289 288 288 289 289 289 289 288 288
300 302 300 300 297 295 291 289 288 288 287 286 289 287 286 289 287 286 286 291 287 284 283 287 287 288 290 289 289 289 289 289 287 288 287 286 288 287 287 288 287 289 288 288 287 288 289 288 289 290 290 290 290 290
299 299 298 297 291 291 289 292 289 289 286 285 285 287 284 283 284 286 289 285 284 287 287 287 286 286 286 286 286 289 289 289 290 290 290 288 286 287 287 288 288 287 288 288 288 288 288 289 290 290 289 288 289 288
298 297 294 292 287 285 284 292 285 285 281 283 285 283 283 284 286 289 284 285 288 289 288 287 286 286 286 288 289 289 289 288 287 287 287 287 287 288 289 289 289 287 286 287 289 289 289 291 291 289 288 287 287 286
297 291 286 285 285 283 287 283 285 283 284 282 282 281 283 284 287 283 281 285 285 286 285 284 285 284 286 286 286 287 288 289 288 288 287 288 287 286 288 289 290 289 289 289 289 289 289 289 290 288 287 286 286 285
283 281 284 281 286 283 281 281 282 282 280 282 282 281 284 285 281 281 281 281 282 283 283 283 284 285 284 284 286 286 290 289 288 287 288 289 288 288 287 288 289 290 291 289 288 288 288 288 287 286 286 285 285 285
279 282 281 283 283 282 283 280 280 281 282 281 282 284 285 282 280 278 279 281 282 282 282 283 283 283 284 286 285 286 288 291 290 287 289 291 290 288 288 287 286 288 291 291 289 287 286 286 286 285 285 285 287 285
279 282 285 288 285 284 283 284 284 282 280 280 281 281 280 275 277 279 282 283 281 283 285 286 285 285 284 285 287 290 291 290 289 288 289 289 290 290 289 287 286 289 292 291 290 288 287 286 286 285 285 285 285 285
284 284 281 284 284 285 281 282 281 281 282 283 282 278 276 276 276 279 282 283 285 286 287 288 288 288 286 286 287 287 289 291 292 291 291 289 288 289 290 290 290 291 290 289 288 288 287 286 286 285 285 284 284 285
283 285 284 277 281 282 282 280 280 282 283 282 280 278 278 280 281 281 282 284 286 286 283 283 284 287 288 288 287 286 287 287 288 285 283 283 283 285 288 289 289 289 289 288 290 289 287 286 285 285 285 284 284 284
283 286 282 282 279 279 282 284 282 284 284 284 283 281 280 281 283 285 284 283 282 282 283 283 283 284 283 284 284 284 286 286 286 285 283 282 284 286 287 287 287 288 288 286 285 285 288 286 286 285 284 284 283 282
286 286 283 283 281 283 284 286 286 286 285 284 284 282 280 282 283 283 282 283 283 283 282 281 281 281 282 281 281 282 282 286 286 287 287 287 287 286 286 286 287 287 286 285 285 284 284 284 283 283 283 282 282 282
285 283 282 281 281 285 286 284 284 283 283 282 282 283 282 281 279 280 282 282 281 280 281 281 280 280 282 283 283 284 285 284 284 284 286 285 285 286 286 286 286 286 285 285 285 285 284 284 283 282 282 282 281 281
284 284 284 282 282 282 283 283 282 282 282 282 282 282 282 280 278 280 284 283 281 280 280 281 282 282 282 282 282 282 284 283 284 286 286 286 287 286 285 285 285 285 284 284 284 284 283 282 282 282 282 282 281 281

GFSWCAN_sfc_thetae_003.txt.gz
Theta_e
307 307 308 308 308 308 308 309 309 308 309 310 309 309 310 310 311 304 301 303 297 292 293 296 296 292 292 292 288 290 289 288 286 282 281 279 278 283 283 284 282 281 280 279 280 279 277 297 297 291 294 295 296 295
306 307 307 307 307 308 308 308 308 308 308 308 310 310 309 309 310 308 299 303 304 297 294 299 299 300 299 298 294 293 291 289 292 285 284 283 279 281 282 278 287 279 285 281 283 283 291 292 293 300 300 297 296 296
306 306 307 307 307 307 307 308 308 307 309 309 310 310 309 309 310 308 299 300 300 295 293 293 292 298 301 301 302 291 293 294 292 293 289 287 283 283 279 280 281 286 287 284 284 288 290 292 295 296 298 298 298 301
305 306 306 306 307 307 307 307 307 308 308 309 310 310 310 310 309 308 299 300 298 294 287 289 298 295 300 299 299 300 298 298 296 294 290 287 284 289 284 284 284 286 285 284 283 287 289 291 295 297 297 298 300 302
306 306 306 306 306 306 306 307 307 308 308 309 309 310 310 310 309 306 302 302 302 294 285 287 294 296 297 297 297 298 297 295 293 290 289 286 288 288 287 283 283 287 285 281 281 288 288 290 294 295 295 296 298 299
307 306 305 305 305 306 306 306 307 308 309 310 310 311 310 310 309 301 293 296 300 302 292 284 293 292 295 296 295 294 295 294 294 291 290 290 293 289 284 282 288 290 291 291 288 292 292 293 294 295 295 296 298 298
305 304 304 305 305 306 305 307 309 309 309 310 310 310 310 309 304 297 292 294 304 302 290 283 281 291 294 293 292 293 293 292 294 292 290 290 289 290 286 282 288 290 291 291 292 291 289 291 291 295 295 296 298 300
304 304 304 305 305 305 306 308 309 310 310 310 310 309 308 308 306 300 302 305 305 298 295 285 284 286 293 287 286 293 291 293 293 290 290 288 289 288 281 286 287 289 290 290 291 292 292 293 294 294 296 296 296 297
304 304 304 305 304 306 307 308 308 309 310 309 308 307 302 301 297 297 305 304 300 295 287 284 282 280 293 290 292 291 292 286 289 287 287 288 285 282 285 286 287 289 289 290 292 292 292 291 292 294 294 295 293 294
304 304 304 304 305 306 307 308 308 309 308 307 302 296 289 295 304 301 294 290 292 290 287 284 288 283 287 287 286 287 287 285 282 283 289 285 283 289 290 290 290 291 292 293 290 289 289 289 289 291 292 294 295 295
304 304 304 305 305 306 307 307 308 308 306 296 291 290 295 301 293 293 288 284 286 281 287 285 285 285 289 285 285 287 284 283 278 280 280 279 279 285 288 289 292 293 293 292 292 291 291 291 291 290 291 293 294 294
304 304 305 305 306 306 307 308 307 300 295 296 296 298 296 291 288 285 283 285 279 282 287 286 284 285 285 290 287 287 284 285 278 283 282 277 282 288 290 292 292 293 292 290 290 290 290 290 291 291 292 292 294 295
304 304 305 305 306 306 307 307 306 306 302 298 292 290 288 284 277 280 273 277 277 284 285 285 283 288 286 288 285 285 282 280 283 276 278 280 285 290 292 293 291 292 291 291 291 290 290 289 291 292 292 294 294 294
303 304 305 305 306 307 307 306 306 302 297 286 286 276 282 279 283 280 281 281 285 284 285 287 285 285 284 285 284 281 283 280 272 271 275 283 288 290 289 289 289 290 291 291 290 289 287 287 289 292 293 293 293 293
304 305 306 306 306 305 305 306 304 298 290 286 287 278 279 282 284 285 285 285 287 291 286 282 283 285 282 283 283 282 278 273 276 275 282 289 290 289 287 289 290 291 291 290 289 286 286 289 290 291 291 292 292 293
304 304 303 306 305 304 305 304 300 296 289 287 286 283 283 281 281 282 283 283 287 286 285 283 283 281 280 280 278 277 277 277 280 286 289 290 289 289 286 289 290 291 290 290 288 287 289 289 289 289 290 291 292 293
304 299 305 305 304 303 304 297 295 291 287 286 284 288 286 285 284 285 286 286 290 287 283 282 277 276 281 279 275 278 276 281 285 287 289 288 288 289 289 290 291 291 289 288 285 288 289 289 289 289 287 289 290 291
299 301 305 305 300 300 299 295 292 289 285 285 280 282 285 285 286 286 287 289 288 286 284 282 286 281 276 271 275 281 285 288 288 288 287 287 288 289 291 291 290 288 287 284 286 287 288 288 287 286 287 288 288 288
300 301 304 303 299 294 291 292 291 283 285 286 287 287 287 285 286 289 289 289 291 291 287 285 281 278 280 283 284 285 286 285 284 285 287 288 289 290 292 291 287 285 284 286 287 287 287 288 288 288 288 288 287 287
305 304 303 302 300 291 288 288 292 284 283 285 285 283 284 284 285 288 289 288 287 287 284 283 281 285 284 285 287 286 285 287 286 285 285 288 289 290 288 286 285 285 287 288 288 289 288 287 289 289 289 289 287 286
301 300 301 298 293 291 288 287 286 287 286 285 287 286 285 284 282 285 285 287 285 286 282 285 286 287 287 286 287 287 286 287 286 286 286 286 289 287 286 287 288 287 288 287 286 287 288 287 289 290 289 288 288 288
296 302 296 296 289 289 287 289 285 289 281 284 284 285 283 280 280 281 284 282 282 284 286 284 284 284 284 284 286 287 288 288 288 288 289 287 285 284 285 288 288 287 287 287 288 287 288 289 289 289 288 288 288 287
299 296 291 290 284 282 281 289 283 284 281 282 284 282 279 279 281 284 280 281 286 286 285 284 284 285 285 287 287 289 289 288 287 287 286 286 287 288 288 288 288 287 286 287 289 289 289 291 290 288 287 286 286 285
297 289 285 285 283 278 284 282 284 283 283 281 280 273 277 282 283 281 278 281 281 283 283 283 283 283 285 286 285 286 288 289 287 287 287 287 286 286 288 288 288 289 289 289 289 289 289 289 289 287 286 285 285 284
280 282 281 276 285 282 281 280 281 281 278 277 276 275 280 281 276 278 278 278 279 280 281 282 283 283 283 284 286 287 290 289 287 286 288 289 289 288 288 289 289 290 291 289 288 288 287 287 286 285 285 285 284 284
271 277 275 278 280 278 278 278 278 278 280 279 278 281 283 279 273 276 277 277 277 278 280 281 282 283 283 285 284 285 287 289 289 286 286 288 289 288 287 286 286 287 290 290 288 287 285 285 285 284 284 284 286 284
272 278 282 287 285 282 278 279 279 279 278 276 280 279 279 273 272 276 277 278 277 281 284 285 286 285 284 284 285 287 290 289 287 287 288 287 288 289 288 287 285 288 291 290 289 287 286 285 284 284 283 284 284 284
281 284 281 281 280 280 277 278 279 279 279 280 280 278 276 273 272 276 277 281 283 284 285 286 286 288 287 286 286 286 287 290 290 290 289 288 288 288 288 289 290 291 289 288 287 286 286 285 284 284 283 283 283 284
282 284 283 273 274 276 275 278 278 280 281 279 279 277 275 278 278 277 279 282 283 283 281 281 282 285 286 286 285 285 286 286 285 282 281 281 282 283 286 288 288 288 287 287 289 288 286 285 284 284 284 283 283 283
282 282 280 278 274 274 278 280 279 280 279 280 279 278 278 278 278 279 281 281 280 280 282 282 281 282 281 282 282 283 285 285 285 284 282 281 283 285 286 286 286 286 286 285 284 284 288 285 285 283 283 282 282 282
285 282 278 279 275 278 280 281 281 282 281 280 281 279 278 279 281 282 281 281 282 281 281 280 280 279 280 280 280 280 280 283 283 285 286 285 285 285 285 285 285 285 285 284 283 283 283 283 282 281 281 281 281 281
282 280 280 277 279 281 281 280 281 280 279 279 279 280 280 279 279 279 280 280 280 279 280 280 279 277 279 279 280 282 283 282 282 283 284 284 283 284 284 284 284 284 283 282 283 283 282 281 281 280 280 280 280 280
282 281 281 279 279 280 282 279 279 279 279 279 280 281 280 280 278 278 282 281 279 278 278 279 281 279 279 280 280 280 282 281 283 285 286 286 286 286 284 283 283 283 282 281 281 281 281 280 280 280 280 280 280 280

GFSWCAN_sfc_thetae_006.txt.gz
Theta_e
307 307 307 307 308 308 308 308 308 308 308 308 308 308 310 310 310 302 298 301 297 291 292 294 294 291 289 289 286 289 288 287 286 283 282 278 277 280 279 282 279 280 279 278 280 277 272 294 290 284 288 294 296 295
308 307 307 306 307 307 307 307 307 307 308 307 308 308 309 309 310 308 296 300 301 296 292 297 297 298 296 295 291 290 288 288 290 285 284 284 280 278 279 276 283 277 282 280 281 279 287 290 291 294 294 291 294 294
307 307 307 306 307 307 307 307 307 307 309 308 309 309 309 309 310 308 297 297 298 291 289 290 289 295 299 299 300 289 290 292 291 293 289 287 282 280 279 280 280 283 287 284 284 287 289 291 292 292 292 292 295 297
307 307 306 306 306 306 307 307 307 307 307 308 309 309 309 310 310 309 301 298 298 294 286 288 295 292 296 297 298 298 295 296 294 292 289 286 283 287 281 283 282 285 285 284 284 287 289 290 290 290 292 293 294 295
306 307 306 306 306 306 306 307 307 306 307 308 309 309 310 310 310 307 303 303 302 294 283 286 294 296 296 295 295 295 294 293 291 289 288 285 289 288 286 286 284 287 286 283 282 288 287 287 291 292 292 292 293 293
306 307 307 307 305 305 305 306 306 306 308 309 310 310 310 310 309 302 293 294 299 302 292 284 290 290 293 293 292 292 293 293 292 289 289 291 293 289 283 281 287 289 290 290 287 291 290 291 292 293 291 292 293 294
306 306 306 305 305 305 305 305 306 307 308 309 310 310 309 309 302 297 291 293 303 301 292 285 280 287 292 292 289 289 291 289 291 290 289 289 290 290 285 281 288 290 291 291 290 290 288 290 289 292 293 293 295 295
306 306 306 305 305 305 305 305 306 308 308 309 309 309 308 308 306 300 302 305 305 297 294 285 283 283 290 286 286 294 289 290 292 290 290 288 290 288 282 286 288 289 288 287 288 290 290 292 292 292 293 293 293 293
306 306 305 305 305 305 305 306 307 308 308 309 308 307 301 297 293 296 305 305 302 295 286 285 282 279 288 286 289 290 291 285 290 287 288 287 284 281 285 285 287 288 287 288 291 292 293 292 291 291 290 290 290 291
305 305 305 305 304 305 305 306 307 308 308 308 300 293 288 295 303 300 293 292 292 291 289 284 288 282 286 286 286 287 288 284 282 284 287 285 283 286 288 289 290 290 293 292 289 288 289 289 289 289 289 290 291 291
305 305 304 304 304 305 306 307 307 307 303 295 290 288 295 300 291 292 287 285 285 283 285 285 284 284 286 284 284 288 283 282 278 279 280 278 278 283 287 289 292 293 292 292 291 291 289 289 289 288 288 289 290 291
305 304 304 304 305 305 306 306 307 300 295 295 295 297 296 290 287 282 280 282 279 277 286 284 283 283 284 288 286 286 284 284 277 282 281 276 280 287 290 291 291 291 290 290 291 290 291 291 290 288 287 287 289 292
305 304 304 304 305 306 306 307 307 305 301 296 292 290 287 284 278 278 270 274 274 282 283 282 282 284 285 287 285 284 280 277 280 278 278 279 284 289 290 291 291 290 290 289 289 290 291 290 289 287 286 288 291 291
304 305 305 304 305 306 306 307 306 302 294 288 285 280 281 278 279 278 278 280 283 283 287 288 284 283 283 284 284 280 280 281 275 272 275 284 288 290 291 291 289 288 289 289 289 290 289 289 286 288 289 290 290 290
304 304 304 304 305 306 306 306 305 296 290 287 286 279 279 282 281 282 283 282 285 286 284 281 280 282 281 282 283 282 278 275 274 274 280 287 289 289 286 287 287 288 288 290 289 288 288 287 288 288 289 289 289 290
303 303 302 305 306 306 305 304 299 295 290 288 286 283 284 281 279 279 280 281 287 288 287 282 283 281 279 280 278 275 273 272 280 284 286 287 286 286 286 287 287 288 291 289 287 287 287 288 288 288 288 288 289 291
303 299 305 306 306 305 304 296 296 291 288 284 284 288 286 284 280 281 282 284 289 286 280 281 277 276 280 279 277 276 278 282 284 285 286 286 285 285 286 286 287 290 288 286 285 284 287 289 288 288 285 286 287 289
299 302 306 305 302 300 296 293 289 286 285 286 282 283 284 283 283 283 283 285 286 285 284 281 283 279 275 270 273 279 283 284 285 284 285 286 286 287 288 287 289 289 285 283 286 286 288 287 286 286 285 285 286 285
301 301 305 304 298 293 289 292 289 279 282 283 285 284 284 283 284 285 285 287 288 290 286 285 280 278 278 282 283 283 283 283 283 284 285 286 287 288 289 289 288 286 284 287 287 287 287 287 286 287 286 286 285 285
304 304 304 303 299 289 286 289 291 284 282 284 284 282 283 282 284 284 285 287 287 285 282 282 281 281 284 285 285 284 284 285 284 283 284 286 287 288 287 286 285 286 287 288 288 288 288 287 288 288 288 287 286 285
301 301 302 297 291 290 286 284 283 286 286 283 285 286 283 282 281 281 282 284 283 283 282 285 284 283 285 285 285 286 286 286 285 285 284 284 286 287 285 286 287 288 287 287 287 288 288 286 288 289 288 287 288 288
297 300 294 295 287 287 286 287 282 287 282 283 283 284 280 278 279 280 282 281 280 284 285 281 281 283 283 283 285 287 288 288 288 288 288 287 285 285 285 287 288 287 287 287 288 288 287 288 288 288 287 287 287 287
299 295 292 291 284 282 281 287 280 282 278 281 284 280 278 278 280 283 279 280 285 284 282 282 283 285 284 286 288 288 289 288 287 287 286 286 287 288 287 287 288 287 286 287 289 288 288 289 289 287 286 286 285 284
297 289 285 283 282 277 282 281 284 282 283 281 280 273 275 279 281 281 278 280 281 281 279 281 283 283 284 285 285 285 287 289 288 288 288 287 286 286 288 288 289 289 289 289 288 288 288 287 287 285 285 285 285 284
283 282 281 277 283 280 279 280 280 280 279 277 274 274 278 280 276 277 277 279 278 277 278 277 283 283 282 283 285 286 288 288 286 286 286 287 288 288 288 288 288 288 290 288 287 287 286 286 285 285 285 284 284 284
275 278 277 277 280 280 279 276 278 278 279 278 278 280 282 279 275 274 277 276 276 275 279 281 281 282 282 284 283 284 286 288 288 284 286 286 287 287 286 286 285 286 289 290 286 284 284 285 284 283 283 284 286 283
273 276 281 285 284 282 280 280 279 279 278 276 277 278 277 273 272 276 276 277 274 276 283 284 284 283 284 284 285 286 288 289 288 287 288 288 287 287 287 286 285 287 288 287 287 286 284 284 283 283 282 283 283 283
281 282 279 282 282 281 277 278 279 277 277 279 278 277 274 273 273 277 277 278 277 278 284 284 285 286 286 285 285 285 286 288 289 290 289 287 287 287 288 288 288 289 288 287 286 286 285 284 283 283 283 282 282 283
281 282 281 277 277 277 276 278 277 279 280 278 277 277 276 277 277 275 276 277 278 279 278 278 279 284 286 286 285 285 285 285 284 281 280 280 281 283 286 287 287 286 286 285 288 288 286 285 284 283 283 283 283 283
278 282 278 277 275 274 278 279 278 279 278 279 278 277 277 276 275 276 276 276 278 278 280 279 279 280 280 281 281 282 283 283 284 283 281 280 281 284 285 285 284 285 284 284 283 283 287 284 284 283 282 281 281 281
282 281 279 279 275 277 279 280 280 281 280 278 278 277 276 276 279 279 278 279 280 281 280 279 278 279 279 278 279 279 279 282 283 284 285 284 284 283 283 283 283 284 283 283 282 282 282 282 281 281 281 280 280 281
282 281 280 276 278 280 280 278 278 278 278 277 277 278 278 278 277 277 279 280 280 279 280 280 279 277 277 278 279 280 283 280 281 282 283 283 283 284 283 283 283 283 282 282 281 281 281 280 280 280 280 280 280 280
282 281 280 280 278 279 281 280 281 280 279 277 278 278 278 278 278 278 280 280 279 278 278 278 279 278 278 279 279 279 281 280 282 284 285 286 286 286 284 283 283 283 282 281 281 281 280 280 280 280 280 280 280 280

GFSWCAN_sfc_thetae_009.txt.gz
Theta_e
309 308 308 308 307 307 307 307 307 307 307 308 307 307 308 309 309 301 296 299 295 290 290 291 292 288 287 287 284 286 285 285 283 276 277 276 280 280 278 279 279 276 273 274 274 271 271 290 289 283 288 292 292 291
308 309 308 307 307 307 307 307 306 308 307 307 308 308 308 309 309 307 298 299 300 295 291 295 295 296 294 294 290 290 288 287 288 284 282 281 277 282 280 275 282 277 281 279 279 279 287 290 289 292 292 291 291 291
308 308 308 308 307 306 307 307 307 307 308 308 309 308 309 309 310 308 300 300 299 294 291 289 287 293 297 296 297 288 289 292 288 292 287 286 281 279 278 279 279 281 286 283 283 285 287 289 291 292 292 290 291 293
308 308 308 308 306 307 306 307 307 307 307 307 307 308 309 310 310 309 302 302 300 295 287 288 294 290 294 294 294 296 293 293 292 291 288 285 282 286 281 282 281 285 286 284 284 286 288 289 289 289 291 292 292 293
308 308 308 308 307 307 307 307 306 306 307 306 307 309 309 310 310 306 300 302 301 295 286 288 293 294 294 294 293 294 293 291 290 288 286 283 288 287 285 286 283 287 285 283 281 287 287 288 291 292 290 291 291 291
309 308 307 308 307 308 307 306 305 305 306 307 308 309 310 310 309 298 290 293 300 302 291 284 290 290 291 292 291 290 291 290 290 287 287 289 291 287 283 279 287 289 290 291 288 291 290 291 291 291 290 291 292 292
309 308 307 307 308 307 306 306 305 305 306 307 309 309 309 309 302 296 289 292 303 301 292 285 282 287 289 290 289 287 288 287 290 289 288 288 288 289 285 281 287 288 288 288 289 288 286 288 288 291 292 292 294 293
309 308 307 307 307 306 305 306 305 306 307 308 309 309 308 308 306 299 303 304 304 297 294 284 282 282 288 285 283 288 287 291 291 290 290 288 290 288 282 284 286 287 287 286 288 290 289 291 291 292 293 292 290 290
309 308 307 307 307 306 305 305 305 306 308 309 309 307 300 296 293 297 305 305 303 296 285 285 279 274 286 283 287 288 290 285 290 287 288 288 286 282 284 284 286 287 286 289 292 291 291 289 289 290 290 289 289 289
308 309 308 307 307 306 306 306 306 307 308 308 300 293 288 297 302 299 294 290 291 292 291 284 287 283 285 280 279 283 285 284 281 283 285 285 281 287 287 287 288 290 293 293 288 286 287 287 288 288 289 289 289 288
308 308 308 307 307 305 305 305 306 307 302 295 290 289 295 300 291 290 286 286 285 284 286 286 285 283 285 281 280 283 283 281 278 278 280 279 277 283 289 289 292 293 292 291 289 289 289 288 288 288 289 289 289 287
308 308 307 307 306 305 306 306 307 301 295 295 295 297 293 290 287 283 281 281 281 279 282 285 284 283 284 285 286 285 283 282 277 283 281 277 280 286 289 290 291 292 292 290 290 289 289 290 290 289 288 288 287 287
308 307 307 306 305 305 306 307 306 303 301 296 291 289 287 285 279 278 272 274 276 281 284 282 281 286 285 287 285 284 280 279 281 279 277 278 285 288 289 291 291 291 290 288 288 289 291 291 290 288 287 287 287 288
307 307 306 306 305 306 306 306 306 302 294 287 284 280 281 278 279 278 278 280 282 283 284 286 283 281 282 283 282 279 280 281 275 275 273 280 287 287 288 288 287 286 286 286 288 290 289 287 286 287 287 289 289 288
306 306 306 305 305 306 306 306 305 297 290 284 285 278 278 281 281 281 282 282 284 286 285 282 279 280 280 282 282 279 278 273 276 274 276 285 286 285 285 285 285 285 285 286 288 288 286 285 285 286 288 289 289 289
306 305 302 304 305 305 305 304 299 295 290 287 285 282 282 280 279 280 281 281 285 286 284 282 275 278 276 278 278 275 273 273 274 282 285 285 284 284 284 285 285 286 287 288 289 286 285 286 287 287 288 288 287 288
305 298 303 304 304 304 304 298 295 290 287 285 283 286 282 282 281 281 282 282 286 284 279 279 276 273 278 276 275 274 278 281 282 283 284 284 284 284 285 285 286 287 288 288 286 286 286 288 288 287 285 285 286 286
298 300 304 304 303 302 298 294 290 288 285 285 282 283 283 284 282 282 284 285 285 283 283 281 281 278 273 271 273 278 283 283 284 284 284 284 285 286 287 286 287 288 287 285 285 287 288 286 285 285 285 285 285 285
299 299 304 304 301 294 291 291 289 281 284 285 284 284 284 283 284 286 285 285 286 287 287 283 280 278 277 279 283 282 282 282 282 283 285 286 287 287 287 287 287 285 285 286 287 287 286 287 286 286 286 286 285 286
302 303 303 303 299 290 287 288 290 284 280 283 284 282 282 282 284 284 284 285 286 287 283 281 280 279 283 281 282 282 283 284 284 283 284 286 287 287 287 286 286 286 287 288 288 289 288 287 288 288 288 287 286 285
301 300 303 298 293 289 287 286 286 285 283 281 284 283 282 283 282 282 282 284 284 283 281 284 285 284 282 282 284 285 285 286 285 285 285 284 287 287 287 287 288 288 287 287 286 287 287 286 287 288 287 286 287 287
298 301 295 295 289 287 284 285 282 284 281 282 282 283 280 279 280 281 282 281 282 281 286 282 282 280 282 283 284 286 287 288 288 288 289 288 285 286 286 286 286 286 286 286 287 287 287 288 288 287 286 286 287 286
298 296 292 290 284 281 279 286 282 281 275 278 282 279 279 279 280 283 280 280 282 283 283 281 281 284 284 285 286 287 287 286 285 287 287 285 288 288 288 288 288 287 286 286 289 288 287 288 287 286 286 285 284 284
296 288 285 284 281 278 283 282 283 281 280 280 279 275 277 278 281 280 279 281 281 280 280 279 283 283 283 283 284 285 287 287 286 286 287 285 285 286 288 288 288 288 288 289 289 287 286 286 287 285 285 284 284 283
283 282 282 276 281 277 276 279 279 279 278 279 276 276 278 281 278 279 277 278 278 277 277 275 282 283 281 282 285 286 288 287 285 284 286 287 287 288 288 289 288 288 290 288 286 286 285 286 285 285 284 284 283 283
276 276 275 276 278 278 277 276 277 278 279 278 278 280 281 280 275 275 277 277 277 276 275 281 281 282 282 284 283 284 285 288 287 285 286 286 287 286 286 286 285 286 289 289 287 285 284 284 283 283 283 283 285 283
271 275 280 283 282 281 280 280 280 279 278 277 278 279 278 272 273 276 277 277 275 275 278 284 284 283 283 283 284 286 287 288 288 287 287 287 287 287 287 285 284 286 287 286 286 285 284 283 283 283 282 283 283 283
280 282 278 282 281 281 279 279 279 278 279 280 280 277 274 274 273 277 277 278 276 277 282 284 286 286 285 284 285 285 286 287 288 289 289 287 288 287 287 287 288 288 286 287 286 285 284 283 282 282 282 282 282 283
282 283 282 279 280 279 278 279 279 280 281 279 278 277 276 277 277 275 276 275 277 279 274 279 282 285 285 285 281 281 283 284 282 279 278 279 280 282 285 285 286 286 284 284 287 287 286 285 284 283 282 282 282 282
281 283 279 279 277 276 279 280 279 279 278 279 278 277 277 276 274 274 274 275 275 277 277 277 275 279 277 278 276 277 278 280 282 281 278 277 279 282 283 283 283 283 283 282 281 282 286 283 283 282 282 281 281 281
282 281 279 279 276 277 279 279 280 280 279 278 278 277 277 277 279 278 275 275 276 277 278 277 277 277 276 275 277 277 277 279 279 281 283 282 283 283 283 282 283 283 282 281 281 280 280 280 280 280 280 280 280 280
281 280 279 276 277 278 279 278 277 277 277 277 276 277 277 277 276 279 277 278 279 279 280 279 278 277 277 277 277 278 283 279 280 280 282 282 283 283 283 282 282 283 282 281 281 280 280 280 279 279 279 279 279 280
280 280 280 278 275 278 279 280 279 279 279 278 277 277 277 277 277 278 279 278 279 279 279 279 279 278 277 278 278 278 280 279 281 284 284 285 285 285 284 283 283 283 282 281 281 280 280 279 279 279 279 278 278 278

GFSWCAN_sfc_thetae_012.txt.gz
Theta_e
310 310 309 309 309 309 308 308 307 307 307 307 307 307 307 308 309 302 299 299 292 288 287 290 290 286 287 285 284 284 285 283 282 280 278 275 272 278 277 278 277 274 272 272 273 273 270 287 287 282 286 290 290 289
310 310 309 309 309 308 308 308 307 307 307 307 307 307 307 308 309 305 299 302 302 295 292 294 296 296 293 293 288 288 284 283 286 284 282 282 277 276 277 274 281 275 280 276 279 278 285 288 288 291 291 289 289 289
310 309 309 309 308 309 308 308 308 308 307 308 308 307 308 309 309 306 302 300 299 295 293 287 287 293 296 296 296 285 286 290 288 291 287 285 280 279 277 278 278 281 286 281 281 284 285 288 291 292 291 290 291 291
310 310 309 309 309 309 308 308 307 308 307 307 307 307 308 309 310 309 301 301 300 295 288 287 293 290 293 294 294 294 292 291 290 289 287 285 281 285 280 281 280 283 284 283 283 285 287 287 290 291 291 292 291 292
311 310 309 309 309 308 308 307 308 308 307 307 306 307 308 310 310 304 298 298 300 295 285 286 292 293 292 292 291 292 291 289 286 287 286 284 287 286 285 285 283 287 284 282 280 287 287 288 291 292 290 289 290 290
311 311 311 310 309 308 308 308 308 308 306 306 306 307 309 309 307 296 288 292 301 302 291 282 288 289 290 290 290 290 290 288 286 288 287 288 288 287 282 278 285 288 291 291 287 290 289 289 290 290 289 290 291 292
311 311 311 310 310 309 309 309 308 307 306 306 308 309 309 309 299 296 289 292 301 300 291 284 284 286 287 289 288 287 287 286 288 288 287 287 287 289 285 281 288 288 288 289 288 288 286 287 287 290 291 292 293 292
311 311 310 310 309 309 309 309 307 306 306 306 308 309 308 308 305 299 302 304 304 297 294 284 281 281 286 283 282 285 284 285 288 289 290 287 289 287 281 284 286 287 287 288 289 291 291 291 289 289 290 291 289 289
311 311 311 310 310 309 308 308 307 306 306 307 308 307 300 298 294 296 305 305 303 295 285 284 277 273 284 282 283 283 286 284 287 286 287 287 285 281 283 283 286 289 288 289 291 291 291 288 288 288 288 288 288 288
311 311 310 310 310 309 308 307 306 307 307 307 299 294 287 295 302 300 295 291 292 293 291 283 285 280 282 277 277 277 281 283 280 280 284 284 281 284 286 290 291 291 291 291 288 286 286 285 286 286 287 289 289 288
311 310 310 309 309 309 309 307 307 306 303 296 291 289 294 299 292 289 283 286 287 284 287 287 286 283 284 282 279 281 282 283 278 277 277 280 279 281 290 291 292 291 291 291 290 289 287 286 286 287 287 289 288 288
311 310 309 308 308 308 308 307 306 303 296 295 294 296 293 288 285 284 283 282 283 278 281 282 284 285 283 283 286 284 282 281 273 280 280 276 279 286 289 289 288 288 288 287 287 286 286 287 287 288 289 287 287 287
311 310 309 308 308 308 307 306 306 303 301 296 292 288 286 285 280 279 276 277 278 281 283 286 281 283 286 286 285 283 279 276 280 274 277 277 284 287 287 287 286 287 286 286 285 286 286 287 289 289 286 286 287 287
310 309 308 308 307 307 306 305 306 302 295 288 285 279 280 278 280 280 279 281 282 283 284 285 282 281 284 283 283 278 279 280 274 274 272 279 285 285 286 286 284 284 284 284 285 285 286 288 287 287 287 287 288 287
310 308 308 307 306 306 305 305 305 299 292 285 284 278 279 282 282 282 282 283 284 286 283 281 280 281 281 281 280 277 277 272 274 273 278 282 284 284 283 283 284 285 285 285 286 286 288 287 286 286 288 288 288 287
309 308 305 306 306 305 305 304 301 296 291 286 284 281 282 281 280 281 282 282 285 285 283 282 276 277 278 278 277 274 272 273 273 281 283 284 282 283 284 285 285 285 285 286 287 287 286 286 287 287 288 287 286 286
308 301 306 305 305 304 303 298 295 291 287 285 283 286 284 282 281 282 283 282 286 284 279 279 276 274 278 274 273 275 277 278 282 282 283 283 283 284 285 286 286 287 287 286 285 286 286 288 288 287 285 285 286 286
302 303 305 305 303 300 299 296 291 288 284 285 281 284 285 283 282 282 283 284 284 283 282 279 281 278 276 271 274 277 283 281 280 282 283 285 285 287 288 286 287 287 287 285 286 287 288 286 285 285 285 286 286 286
301 302 304 304 300 296 290 291 290 284 285 283 284 284 283 282 284 285 285 286 286 287 285 284 280 278 277 278 278 279 278 278 281 283 284 286 287 287 287 288 287 287 287 287 287 286 286 286 286 287 287 287 285 286
303 304 304 302 300 290 286 287 291 284 281 283 283 283 282 282 284 284 283 283 286 286 283 281 279 279 277 280 280 279 280 283 283 282 284 286 287 286 286 286 286 287 287 288 288 289 287 287 287 287 287 287 285 285
301 301 302 299 294 291 287 287 286 286 284 282 283 282 281 282 281 281 281 284 284 284 281 282 280 283 282 281 282 282 284 285 284 285 284 284 287 287 287 287 287 287 287 286 286 286 287 286 286 287 287 286 286 286
295 299 294 293 286 287 285 286 283 284 283 283 282 282 280 279 279 280 282 282 283 283 281 282 282 281 280 280 282 285 286 286 287 287 288 288 285 285 286 286 286 286 286 286 287 286 286 287 287 286 285 285 286 286
296 293 288 287 284 283 282 287 282 282 278 279 280 277 278 278 280 282 279 281 282 282 282 282 281 281 281 283 285 286 287 287 285 285 286 286 286 287 287 287 288 286 285 287 288 287 287 288 287 286 285 285 284 284
294 287 285 283 283 279 285 283 283 281 281 280 279 274 275 277 280 280 278 279 282 280 280 280 281 280 281 283 283 284 286 287 286 286 286 286 284 286 288 287 288 288 288 288 288 287 287 287 287 285 285 284 284 283
283 281 283 279 282 278 279 280 280 279 277 278 275 274 276 279 278 279 278 279 278 278 278 277 277 280 282 282 283 285 288 287 284 284 286 286 285 286 286 288 288 288 289 288 287 286 285 285 284 284 283 283 283 283
278 280 279 278 280 279 279 276 277 277 279 277 277 278 280 280 276 275 277 279 278 277 277 278 279 281 282 283 283 283 285 288 287 284 285 286 286 285 284 283 283 284 288 288 286 285 284 284 283 283 283 283 284 282
276 276 279 282 281 282 279 280 280 279 277 275 277 278 278 273 274 278 278 278 276 276 278 280 282 283 283 283 284 285 287 288 288 286 287 287 286 286 286 284 283 286 287 286 286 284 283 282 282 282 282 282 282 282
281 280 278 281 281 281 279 279 279 278 278 280 280 277 275 275 275 278 278 278 275 277 278 282 286 286 285 284 285 285 285 286 288 288 289 287 286 285 285 285 286 287 285 285 285 285 284 283 283 283 282 282 282 282
281 283 283 278 279 278 278 279 279 280 281 281 279 278 277 278 277 276 276 275 279 280 279 278 282 285 285 284 282 281 283 283 281 279 276 277 278 279 282 283 282 283 283 283 285 285 285 284 283 282 282 281 282 282
281 282 280 280 277 277 279 281 280 279 279 279 279 278 277 277 274 275 276 277 278 278 276 275 277 283 283 281 278 278 276 279 282 279 275 273 277 278 281 281 281 281 282 281 280 280 284 282 282 280 281 281 281 281
282 281 279 279 276 278 280 280 281 281 279 278 279 278 277 277 279 279 274 272 273 276 276 274 277 279 281 279 278 278 277 278 277 279 282 282 279 280 281 281 281 282 281 281 280 280 279 279 279 279 279 279 280 280
282 280 279 276 277 280 280 279 278 278 278 278 277 277 277 276 275 278 277 277 279 278 279 278 278 279 279 279 279 279 282 278 278 279 280 281 281 282 283 283 282 282 281 281 280 280 280 279 279 279 278 278 278 278
281 280 279 278 278 278 279 278 278 278 278 277 277 277 276 277 276 278 277 278 279 279 279 280 281 280 279 279 279 279 280 278 279 283 284 285 285 285 284 283 283 282 281 280 280 280 279 278 278 278 278 278 278 278

GFSWCAN_sfc_thetae_015.txt.gz
Theta_e
311 311 310 310 309 309 309 308 308 308 307 307 307 307 307 308 308 302 299 300 293 285 286 289 291 287 287 286 283 284 283 283 282 280 279 278 276 279 278 280 279 277 275 275 276 273 271 287 287 281 286 290 290 291
312 311 311 310 309 309 309 309 308 308 308 307 307 306 307 308 308 306 298 302 302 295 290 293 293 294 293 291 287 288 284 284 285 282 282 282 278 279 279 275 282 277 281 279 280 279 286 289 288 291 292 290 291 291
312 312 311 310 310 309 309 309 308 308 308 309 307 306 307 308 309 305 300 300 299 294 290 289 289 293 295 296 296 286 286 289 288 289 286 284 280 281 277 278 279 282 286 282 281 285 286 288 290 292 292 291 293 293
313 313 312 311 310 309 310 309 309 308 308 308 307 307 307 308 309 307 301 300 299 294 286 285 293 290 294 294 294 295 290 291 290 290 287 285 281 286 280 282 281 284 285 283 283 285 287 289 291 292 292 292 292 292
313 313 313 312 311 310 310 310 309 308 308 308 307 307 307 309 309 303 298 297 300 294 283 284 291 292 292 291 291 293 292 289 287 287 285 282 287 285 285 285 282 286 284 282 281 288 288 288 292 293 291 290 291 290
313 313 313 312 312 311 310 310 309 308 308 308 306 307 308 309 306 296 289 292 300 302 289 281 288 288 291 291 290 289 290 289 287 285 285 286 288 287 282 280 284 288 291 291 288 291 291 291 292 292 290 291 291 290
314 313 312 312 312 311 310 310 310 309 308 307 307 307 308 309 298 293 288 291 300 297 289 284 284 287 287 289 289 288 288 286 285 285 287 286 286 288 284 280 287 287 288 289 290 291 288 289 288 292 292 291 292 291
314 313 313 312 312 311 310 310 310 309 308 307 307 307 308 308 305 299 299 302 302 295 294 284 283 282 287 284 284 286 285 285 288 288 287 286 288 287 281 284 286 289 289 289 290 291 291 291 292 292 290 289 288 288
314 314 313 312 312 311 311 310 309 309 307 307 307 306 300 297 295 296 305 306 303 295 286 284 279 275 285 283 283 283 285 282 285 285 286 287 285 281 283 285 287 289 288 288 290 290 290 288 287 288 287 287 286 287
313 313 313 312 312 311 310 310 310 308 307 307 301 294 289 296 304 301 295 292 293 293 291 285 287 279 283 279 277 276 278 282 280 279 284 284 282 286 286 290 292 291 289 288 285 284 285 285 285 285 285 286 287 287
312 312 313 312 311 311 310 310 309 307 305 298 292 290 294 300 292 288 283 285 286 284 287 287 286 284 285 280 279 281 281 283 278 278 278 279 277 282 288 290 290 289 289 288 287 287 286 285 285 284 285 286 287 289
310 312 312 311 311 310 309 309 307 302 298 297 295 296 294 289 285 282 281 283 284 281 282 284 284 286 283 285 284 285 280 281 274 281 280 277 279 287 287 287 287 287 286 285 286 285 285 285 286 286 286 287 288 287
309 310 311 311 310 310 309 308 307 303 301 296 292 288 286 284 280 279 276 279 279 283 282 283 282 283 285 287 285 282 278 276 281 276 277 278 285 286 286 285 285 285 285 285 285 286 286 286 287 287 288 287 287 287
308 309 311 310 310 309 308 307 305 303 296 289 286 280 281 278 279 280 281 281 283 283 284 284 283 284 285 283 283 278 280 279 275 274 274 279 282 284 284 284 283 284 285 285 285 286 286 287 286 287 287 288 288 286
306 308 309 309 309 308 307 306 305 300 293 286 285 278 279 281 281 282 282 283 283 286 284 282 281 281 281 278 281 279 276 274 274 274 276 281 283 282 282 283 284 285 286 286 286 287 286 285 286 287 288 288 287 287
306 307 307 309 308 307 306 305 302 296 292 287 284 281 281 279 279 280 282 282 285 284 283 282 277 278 278 279 276 274 273 273 275 279 281 282 281 283 284 285 286 286 287 287 287 286 287 286 286 286 287 287 287 286
305 301 307 308 307 306 304 300 296 290 286 284 284 286 281 281 280 282 283 283 285 283 279 279 272 274 278 273 272 276 275 277 282 281 281 281 283 284 286 287 287 287 287 287 286 287 287 289 288 287 285 286 286 287
299 303 307 308 306 303 299 296 290 286 283 286 282 281 283 282 282 282 282 283 284 282 281 278 278 275 275 273 274 279 278 281 280 280 280 282 285 286 287 286 286 287 286 287 287 287 287 286 285 285 286 286 286 286
301 303 307 306 302 295 287 290 290 283 285 286 281 281 282 282 283 284 284 285 284 284 283 279 278 278 277 279 277 279 280 279 278 280 281 283 286 287 287 287 287 287 287 287 287 286 287 287 286 286 287 287 285 286
304 305 306 304 299 288 284 286 292 285 281 282 281 280 281 281 283 285 282 283 285 286 283 280 280 280 278 280 282 282 281 281 279 278 282 285 287 288 287 287 286 287 287 287 287 289 287 287 287 287 287 287 285 284
302 303 304 299 289 288 287 285 286 284 283 280 281 282 281 281 282 282 282 285 284 283 282 284 281 282 283 282 282 282 281 282 279 282 283 283 287 287 287 287 288 287 286 285 286 286 287 286 287 286 286 285 285 285
296 304 295 290 285 285 285 288 285 284 282 280 281 281 279 278 280 281 283 283 283 284 286 282 281 281 281 280 281 282 283 284 284 287 287 287 285 285 285 287 286 285 286 286 287 286 286 288 288 286 286 285 286 285
296 292 286 285 284 282 282 287 281 279 278 279 280 279 279 279 281 284 281 282 282 284 285 283 282 282 282 282 283 283 284 285 285 286 286 286 286 287 287 287 287 286 285 286 288 287 287 288 288 287 286 286 285 284
294 286 284 283 283 279 284 282 282 280 280 279 278 275 277 279 280 280 278 279 281 281 280 280 281 279 280 281 280 281 285 287 286 286 286 286 284 285 287 288 288 288 288 288 286 286 286 286 286 285 284 284 284 283
283 281 282 279 283 279 278 279 279 279 278 279 277 277 278 280 278 278 278 280 280 279 278 278 279 279 278 278 280 284 287 287 285 284 286 287 286 286 286 288 287 287 288 286 285 285 285 285 285 284 283 283 283 282
278 280 279 277 278 276 278 274 276 276 278 278 278 280 281 278 275 275 277 280 278 278 278 279 279 278 277 279 282 284 284 287 287 284 285 286 285 285 284 283 283 284 287 287 284 283 283 283 283 283 282 283 284 282
276 276 280 281 280 280 278 280 281 280 278 277 278 279 278 272 274 278 279 279 277 277 280 281 281 280 279 281 285 285 286 287 287 286 287 287 286 285 284 282 282 284 286 284 284 284 283 283 283 283 283 283 283 282
280 279 278 279 280 281 279 279 279 278 279 280 280 277 276 276 276 279 279 278 276 279 280 281 283 283 285 285 285 285 285 287 287 288 287 285 285 284 283 285 285 286 285 284 284 284 283 283 283 283 283 282 282 283
280 282 281 277 279 279 278 279 279 280 281 281 279 278 278 279 278 277 276 276 279 280 280 281 283 286 285 284 283 283 284 284 283 282 281 280 278 279 282 282 282 282 282 282 284 284 284 284 282 282 282 281 282 282
280 282 280 280 276 277 279 280 279 279 279 279 279 278 278 277 275 277 279 279 278 278 279 279 277 283 282 281 280 280 281 282 283 279 276 275 275 277 280 280 281 281 281 281 280 280 283 282 282 281 281 281 281 281
281 281 279 279 276 279 279 280 281 280 280 279 279 279 277 277 278 279 278 275 274 278 277 277 279 282 283 281 280 279 277 278 278 281 283 282 279 278 280 280 280 281 281 281 280 280 280 280 279 279 279 279 279 279
280 279 278 276 277 280 280 279 279 279 279 278 277 278 277 277 275 277 277 276 277 278 279 277 276 277 281 282 282 281 283 279 279 279 280 281 280 282 283 283 283 282 282 281 281 280 280 279 278 278 278 278 278 278
280 280 279 278 277 278 279 279 279 278 278 277 277 277 277 277 275 278 277 278 279 279 278 278 280 281 281 281 281 281 281 279 280 283 284 284 284 284 283 283 283 282 281 280 280 279 278 278 278 278 278 277 277 278

GFSWCAN_sfc_thetae_018.txt.gz
Theta_e
313 313 312 311 311 310 309 309 308 308 308 307 307 307 307 308 307 307 303 306 300 295 294 294 294 292 292 291 288 290 289 289 289 284 284 284 282 284 282 284 282 281 280 279 280 277 275 290 289 282 288 293 292 292
314 313 313 311 311 310 310 310 309 308 308 308 307 306 307 307 308 308 303 306 306 298 296 298 298 299 298 296 293 292 290 289 291 288 287 287 282 284 283 279 287 280 284 282 283 282 290 292 291 294 295 291 293 293
315 315 313 313 312 311 310 310 310 309 308 308 308 307 307 308 308 308 305 303 302 297 296 295 295 300 301 300 301 291 292 293 292 295 292 289 282 286 280 282 284 287 290 285 284 287 289 291 293 294 294 294 294 295
315 314 313 313 312 312 311 310 310 310 309 308 308 308 307 308 308 308 304 305 302 297 290 292 298 296 301 301 300 299 296 296 296 296 289 286 284 289 284 286 285 287 288 285 285 288 290 292 293 293 294 294 294 294
316 315 314 314 313 312 311 311 311 311 309 309 309 308 307 308 308 309 308 306 304 297 289 291 297 298 298 298 297 298 296 294 292 288 286 284 288 287 288 287 284 289 287 284 284 290 289 290 293 294 292 292 293 292
316 316 315 314 313 312 312 311 311 311 310 310 309 308 308 308 307 304 298 300 305 303 294 285 296 294 296 296 295 295 295 294 291 288 287 289 292 288 284 283 288 291 293 293 289 292 291 292 293 294 292 292 293 293
315 316 315 314 314 313 312 311 310 310 310 309 309 308 307 308 306 300 295 299 304 305 294 287 288 294 294 294 295 294 295 293 291 288 287 288 289 290 285 282 289 291 293 293 293 292 290 292 290 293 293 293 294 292
311 314 315 314 314 313 312 312 311 310 310 310 309 307 307 307 306 301 303 304 305 300 297 286 286 288 293 291 291 295 292 290 290 289 291 288 290 288 283 289 291 292 292 292 291 291 290 291 291 291 291 291 289 289
310 311 314 314 314 313 313 312 311 310 310 309 307 306 304 302 297 300 305 305 307 299 288 287 283 284 292 290 291 291 292 285 292 287 287 289 285 282 287 289 290 291 290 288 290 290 289 288 288 288 288 288 287 287
309 310 310 313 314 314 313 312 311 310 309 307 303 297 293 299 304 303 298 295 293 294 293 286 291 286 290 288 288 287 288 286 281 286 291 284 284 290 291 292 290 289 290 289 286 285 286 285 285 286 286 288 288 288
308 309 310 310 313 313 313 312 311 309 307 301 296 293 298 303 298 293 288 287 288 285 289 289 288 286 290 286 287 289 286 286 278 284 283 282 282 287 289 289 290 290 289 288 288 288 287 287 286 286 287 288 289 289
307 308 309 309 311 312 312 310 309 304 301 300 297 299 296 293 290 286 284 286 284 283 288 286 287 289 288 291 288 286 282 283 278 286 281 279 286 289 289 288 289 289 288 288 289 288 288 288 288 287 288 287 288 289
307 307 308 308 309 311 311 310 308 304 301 298 294 291 289 287 282 279 277 281 283 287 287 286 284 288 287 289 287 284 279 280 287 281 279 283 288 289 288 288 287 289 288 288 287 288 288 288 289 287 287 288 288 288
306 306 306 307 308 310 310 308 306 302 297 290 286 282 283 281 283 284 284 286 288 288 287 288 285 285 287 284 284 279 283 284 278 276 278 286 288 287 287 287 287 286 287 286 287 287 287 287 287 288 288 288 287 286
306 306 306 306 307 308 310 308 304 300 293 287 287 281 283 287 287 288 289 287 287 290 289 287 286 287 283 283 284 282 279 277 279 279 286 288 287 286 286 287 287 286 286 287 287 287 287 287 287 287 288 288 288 287
306 305 303 305 306 307 308 305 301 297 292 288 287 284 286 285 285 285 286 287 289 290 289 288 283 281 281 282 279 278 277 276 281 286 288 288 286 286 287 287 287 287 287 287 287 287 287 287 287 287 288 287 288 287
305 300 304 305 305 306 307 300 296 288 285 285 284 289 287 287 287 286 287 288 291 288 285 285 279 279 283 279 278 282 280 285 287 287 289 287 286 287 288 288 288 287 287 287 287 287 287 287 287 286 285 286 287 288
300 303 304 305 305 304 302 295 288 285 284 287 285 286 288 288 287 287 288 289 289 289 287 284 285 279 278 277 279 284 287 288 289 288 287 287 287 288 288 288 288 287 287 288 287 288 286 286 285 286 286 287 287 287
302 303 304 305 303 297 287 287 288 284 286 288 285 289 289 289 289 289 289 290 292 292 288 285 283 281 281 285 286 287 287 288 287 287 287 288 288 288 288 288 288 287 287 288 287 287 288 288 287 287 287 288 287 287
304 304 303 303 302 287 284 285 290 286 284 287 287 286 288 288 289 289 288 289 288 287 285 282 284 286 286 288 289 289 289 288 287 285 286 287 289 289 288 288 287 288 288 288 288 288 288 287 289 288 288 287 286 286
302 302 303 302 289 286 286 285 287 287 285 285 287 287 286 287 286 286 286 289 286 285 284 288 289 290 289 290 290 290 288 287 286 287 286 286 288 288 288 288 288 288 287 286 286 286 286 286 288 289 288 288 288 287
299 301 290 290 285 285 285 287 287 287 286 285 285 286 283 283 284 285 287 284 284 286 289 290 290 289 288 287 287 288 289 288 287 288 288 288 286 286 286 287 287 286 287 287 286 285 286 287 288 289 288 288 288 287
294 292 286 285 284 284 282 288 283 283 281 282 284 282 282 282 284 287 283 285 287 291 291 291 290 290 290 290 288 287 288 287 287 288 288 288 287 287 287 288 288 287 285 286 287 286 286 288 288 288 287 287 287 286
294 287 284 284 284 280 285 282 284 282 282 281 281 279 280 282 283 282 280 284 287 288 288 289 289 287 286 286 286 286 287 288 288 288 288 287 286 286 287 288 289 288 287 287 287 286 287 287 288 287 286 285 286 285
284 282 284 281 284 281 280 280 280 280 278 280 279 279 279 282 279 279 279 283 285 286 287 288 287 288 286 286 286 286 288 289 287 286 288 288 286 286 287 288 288 287 288 286 285 285 287 287 287 286 286 285 285 285
279 282 281 280 280 280 280 277 279 279 280 279 280 281 282 280 278 278 281 284 285 286 285 284 285 284 284 286 285 286 287 289 288 286 287 287 286 285 285 284 284 285 287 287 285 285 285 286 286 285 285 285 285 284
277 278 282 284 283 282 281 282 282 281 279 278 279 279 279 276 276 281 284 284 284 284 286 287 287 286 286 285 287 288 289 289 288 288 289 288 287 287 285 284 283 285 287 286 286 285 284 285 284 285 285 285 285 284
280 281 279 281 282 283 279 280 279 279 280 282 281 278 278 278 280 283 284 283 283 283 284 286 287 287 286 287 288 287 287 288 289 288 287 287 287 287 286 286 287 286 286 286 285 285 285 284 284 284 284 283 283 284
281 283 283 278 281 281 281 281 281 283 284 283 281 280 281 283 281 281 280 281 283 284 283 283 285 287 287 287 287 286 286 286 284 282 281 282 281 283 285 285 285 285 285 285 284 284 284 285 284 284 283 283 283 283
281 284 281 280 279 279 280 282 281 282 282 283 282 281 280 280 279 280 281 282 282 282 283 284 284 285 283 283 282 282 283 284 285 284 283 283 283 284 285 284 284 284 284 284 283 283 284 284 283 283 282 282 282 282
283 283 280 279 278 280 281 282 283 283 282 281 282 281 280 280 280 280 281 281 281 281 280 280 281 284 284 283 282 281 280 282 283 284 285 284 284 284 284 285 285 284 283 283 283 282 282 282 281 281 280 280 280 280
282 280 279 277 278 281 282 281 281 280 280 280 279 280 280 279 279 279 280 279 280 279 280 281 281 282 285 286 285 285 284 284 283 284 284 284 284 284 285 285 285 284 283 282 282 282 281 280 280 280 280 279 279 279
280 280 280 279 278 279 280 281 279 279 279 279 279 279 279 279 277 280 280 282 281 281 281 282 283 283 284 284 284 284 284 283 283 284 284 285 285 284 284 284 284 283 282 282 281 281 280 279 279 279 279 279 279 279

GFSWCAN_sfc_thetae_024.txt.gz
Theta_e
318 317 315 314 314 313 312 311 310 309 308 308 308 308 308 309 311 308 306 307 302 298 299 297 298 295 294 294 289 292 290 290 289 286 287 287 285 285 283 285 282 281 279 279 280 276 274 291 289 282 286 290 291 291
319 318 317 316 314 314 313 312 311 310 309 308 308 307 307 308 309 309 303 307 306 300 299 302 301 301 299 299 294 294 292 292 292 289 289 290 285 286 283 279 288 280 284 281 282 281 289 291 289 292 292 291 292 291
312 317 318 317 316 314 314 313 312 312 311 310 309 308 307 307 308 308 304 306 304 299 298 298 297 301 302 301 301 292 294 296 293 296 291 291 285 287 281 282 284 286 289 284 284 286 288 290 292 293 293 292 293 293
311 311 313 317 317 316 314 313 313 312 312 311 309 309 308 307 308 308 304 306 303 298 291 296 301 298 302 301 300 299 297 298 297 295 291 289 285 289 284 285 284 286 287 284 284 287 289 290 291 293 292 293 293 293
309 310 311 314 316 316 315 314 313 313 313 312 310 309 308 307 306 307 306 307 307 297 291 293 298 299 299 300 298 298 297 295 293 290 289 286 288 288 288 287 284 288 285 283 282 288 287 289 292 293 291 291 291 290
309 309 310 311 313 314 315 315 314 313 312 312 311 310 309 308 308 305 298 306 307 305 294 287 299 296 297 298 297 296 296 295 294 291 288 289 291 288 282 281 287 289 291 290 287 292 291 292 293 292 291 290 290 288
308 309 310 311 311 312 313 314 314 314 312 312 311 309 310 309 305 300 296 301 306 304 294 289 290 295 297 296 295 294 296 295 293 289 287 288 288 290 285 280 287 290 291 292 292 292 289 290 288 290 289 289 290 289
308 309 309 310 311 311 312 313 314 313 313 312 311 309 309 308 306 300 304 305 306 300 297 287 287 290 295 290 289 295 292 291 290 289 289 287 289 288 281 286 289 291 291 292 291 291 289 289 289 288 289 288 287 287
308 308 308 309 310 310 311 311 312 313 313 311 310 308 304 301 297 301 307 306 305 298 288 286 283 286 293 291 292 292 292 285 291 285 286 287 285 282 286 288 289 290 289 289 290 289 288 287 286 287 287 286 285 286
307 308 308 309 309 310 310 311 311 312 312 310 304 297 292 299 306 305 299 295 294 294 293 287 290 287 290 290 289 289 289 286 283 286 289 284 283 289 289 291 292 292 291 290 286 285 285 285 285 286 286 287 286 286
307 307 308 308 308 308 308 309 310 310 310 302 295 293 300 305 298 295 289 288 289 285 289 289 289 287 292 287 287 290 286 286 280 283 283 282 281 286 290 291 292 291 290 288 288 288 287 287 286 286 286 286 287 286
306 307 307 307 307 307 308 308 308 306 303 300 297 298 297 293 290 286 285 287 286 284 289 287 288 290 290 293 289 289 284 285 278 287 282 278 284 289 291 291 291 290 288 288 288 287 288 287 287 287 286 286 286 287
307 307 307 307 307 307 308 307 307 307 302 298 294 289 287 287 282 281 279 283 283 288 290 289 286 288 289 290 288 286 280 280 286 280 279 282 288 291 291 291 289 288 288 287 287 288 288 287 288 287 286 287 287 286
306 306 306 306 306 307 307 306 306 305 298 287 284 281 284 281 283 285 286 288 290 291 290 289 286 286 289 285 286 280 283 283 278 276 278 284 289 290 291 289 287 287 287 286 286 287 287 287 287 287 287 287 286 285
306 306 306 305 306 306 306 306 305 303 294 285 284 282 282 289 290 292 293 293 294 293 290 288 287 287 284 283 285 283 280 276 278 278 284 288 290 291 288 287 287 286 286 286 287 287 287 287 286 286 287 287 286 287
306 305 304 305 305 305 305 305 302 300 291 285 284 285 289 289 289 292 292 291 293 291 290 290 285 283 282 283 281 278 278 276 281 284 288 291 290 288 287 287 287 287 286 286 287 287 287 287 286 286 287 287 286 288
305 300 304 305 305 305 304 300 298 291 287 284 284 289 291 292 291 292 293 291 294 289 285 286 281 281 286 281 279 282 280 283 287 288 289 291 289 288 288 288 288 287 286 287 287 287 287 288 287 286 285 286 287 287
300 303 304 304 304 302 300 298 292 285 282 286 285 289 292 293 293 293 294 293 291 289 288 286 288 283 280 278 279 283 286 288 288 289 289 290 289 288 289 287 288 287 287 288 288 288 288 287 286 285 286 287 287 286
302 303 304 304 303 297 291 290 288 283 285 289 290 292 293 294 295 295 294 293 294 294 292 289 284 282 283 285 286 287 288 288 288 289 289 290 290 289 288 288 288 286 287 287 287 288 288 288 287 287 287 287 286 287
305 304 304 303 302 292 285 284 286 286 285 288 292 291 292 293 294 293 292 292 291 290 288 285 285 287 287 289 290 290 290 291 289 287 287 288 289 288 288 288 286 287 288 288 288 289 288 287 288 287 288 287 286 286
303 302 303 301 295 289 287 285 285 287 290 289 292 290 287 291 288 289 289 292 288 287 285 288 289 291 292 293 292 292 291 290 289 289 287 287 289 288 288 287 287 288 287 287 287 287 287 286 286 287 287 286 287 285
299 302 294 292 285 284 285 288 288 288 288 288 289 289 286 286 286 287 290 286 285 288 289 289 291 291 291 291 291 292 291 291 291 291 293 291 287 287 286 286 286 287 287 287 287 286 286 287 287 287 287 287 286 285
296 292 286 285 284 284 283 289 286 285 283 285 286 284 284 286 288 291 285 286 288 291 292 291 291 292 292 293 293 292 292 291 289 289 289 288 288 289 287 287 289 287 286 287 288 287 287 288 287 287 287 285 284 284
295 286 284 284 285 282 285 283 287 285 286 284 284 282 283 285 287 285 283 285 288 291 290 290 291 290 291 291 290 291 292 291 290 289 289 289 287 287 287 288 288 289 289 288 288 287 287 286 287 287 287 286 286 285
284 282 284 281 285 282 281 281 283 282 280 283 283 282 281 283 281 281 281 284 287 288 289 290 291 290 289 289 290 291 292 291 289 287 289 290 288 288 287 288 288 289 289 287 286 286 286 286 286 286 286 286 286 285
280 282 283 282 283 282 281 279 280 281 281 281 282 283 283 281 279 279 282 286 287 288 289 289 289 288 289 290 289 288 289 291 290 288 290 290 288 287 286 285 285 286 289 288 286 285 284 284 285 285 284 285 286 283
279 281 284 287 286 285 283 284 284 282 280 279 281 280 280 277 278 282 286 287 288 287 289 291 290 289 288 288 290 291 291 291 290 290 291 290 290 289 287 285 286 287 289 288 287 286 285 284 284 284 284 283 282 282
283 283 280 283 284 285 281 282 281 281 281 283 282 279 279 280 281 284 285 286 286 287 287 288 289 289 289 289 289 289 290 290 290 290 289 288 289 287 287 287 288 290 288 287 287 286 285 285 284 282 282 281 281 282
283 285 284 279 282 283 283 282 282 284 286 284 281 281 282 284 284 284 283 284 286 286 284 286 287 289 289 290 290 289 289 287 285 283 282 282 282 284 287 287 287 287 285 285 288 286 284 283 282 282 282 281 281 281
283 286 283 282 280 280 281 283 283 284 285 285 284 284 283 282 281 283 283 284 284 284 286 286 287 287 285 285 285 285 287 288 287 284 282 282 282 285 285 286 286 286 286 283 282 282 286 284 283 282 281 281 280 280
286 284 282 281 279 281 283 284 285 285 284 284 285 283 281 281 281 282 283 284 284 286 285 284 285 286 285 284 284 283 282 285 285 286 287 287 287 287 286 286 286 286 285 282 281 280 280 280 280 280 280 280 280 280
284 282 280 278 279 282 285 284 283 283 283 283 282 282 281 281 279 280 282 282 282 281 283 283 282 282 284 285 286 286 287 284 284 285 286 285 285 286 287 286 286 285 282 281 281 280 280 280 279 279 279 279 279 279
282 282 281 280 280 280 282 282 281 280 280 280 280 280 280 280 278 279 281 282 282 282 282 282 283 284 285 285 285 286 286 284 285 287 288 288 288 287 285 285 285 284 282 282 281 281 280 279 279 279 279 279 278 279

GFSWCAN_sfc_thetae_027.txt.gz
Theta_e
316 319 319 318 316 315 314 313 311 310 310 308 309 309 308 309 311 303 298 301 296 291 293 294 295 289 289 287 284 287 285 285 284 279 278 279 276 281 278 280 279 277 273 273 275 270 271 288 286 279 284 288 288 289
311 312 314 318 318 316 315 314 313 312 311 310 308 308 308 308 310 309 296 302 301 294 294 299 299 298 295 294 289 288 287 286 287 283 282 279 278 277 278 274 283 277 281 276 278 277 285 287 286 289 289 288 288 289
310 311 311 312 316 318 317 315 314 313 313 311 310 307 308 307 309 307 298 299 297 292 291 293 293 297 298 297 296 288 288 291 289 290 285 282 277 280 275 277 280 282 285 280 280 282 284 287 290 290 291 289 290 291
309 309 310 310 311 314 317 317 315 314 313 312 311 309 308 308 308 307 298 301 296 293 287 290 298 295 298 297 297 295 294 294 292 289 284 279 277 284 278 281 280 283 283 281 280 284 285 287 288 289 290 290 290 290
309 309 309 309 310 311 313 316 317 316 314 313 312 311 309 308 306 303 303 302 302 293 288 290 295 296 296 296 295 295 294 291 287 284 281 280 284 281 281 282 281 285 283 278 279 284 283 284 289 291 289 288 287 286
308 308 308 309 309 310 311 313 314 315 315 314 313 312 310 308 308 303 296 301 303 300 292 282 293 292 295 296 295 294 294 292 289 285 283 285 287 282 271 276 284 286 288 289 285 287 287 289 290 289 286 286 287 287
307 307 307 308 308 309 310 311 312 314 314 314 312 311 310 309 304 298 295 298 304 299 290 285 286 292 295 294 293 292 293 291 289 286 285 285 286 287 284 279 284 287 288 289 290 287 284 286 284 286 287 287 288 287
306 306 307 307 307 309 310 310 311 312 313 313 313 311 309 309 305 298 301 305 304 295 293 279 282 287 293 288 287 292 289 290 289 287 288 285 286 286 279 285 287 288 288 287 289 288 285 284 285 286 287 287 286 286
306 306 306 307 306 307 308 309 310 310 311 312 312 309 305 301 296 298 306 306 303 296 285 284 280 276 289 288 290 289 290 283 289 283 285 286 284 280 284 286 286 288 286 287 287 285 284 284 283 284 284 286 285 285
306 306 306 306 306 307 307 308 309 309 310 310 305 298 293 297 307 304 299 294 293 293 293 286 285 280 285 284 281 285 287 284 281 284 285 283 281 287 288 289 289 288 289 288 283 282 281 280 282 283 284 286 286 286
307 306 307 307 307 306 307 307 308 308 307 302 295 293 299 306 298 294 289 287 288 285 289 289 288 283 287 284 284 288 284 282 276 279 279 277 277 284 288 288 290 289 288 286 286 285 284 282 283 285 286 286 286 286
307 307 307 307 307 307 307 307 307 301 298 299 298 299 297 293 289 285 284 285 285 283 286 287 285 289 288 291 287 287 282 283 277 282 276 275 280 286 286 287 287 287 287 286 286 285 284 285 285 287 286 286 286 286
307 307 307 307 307 307 307 306 306 305 302 299 293 286 286 285 281 281 277 280 281 283 286 286 284 287 288 288 286 285 281 280 282 273 276 279 284 287 287 287 286 286 287 286 285 285 285 285 288 287 286 286 286 286
306 306 306 306 307 306 306 306 306 304 297 288 284 280 282 280 282 280 279 283 284 284 287 287 285 285 286 285 285 280 282 280 274 271 275 281 284 287 287 287 286 285 286 285 284 285 284 285 287 287 287 286 286 285
306 306 306 306 306 306 306 306 306 302 296 286 283 279 281 284 284 284 286 285 286 290 288 285 283 284 283 282 283 282 279 272 274 275 281 283 284 287 286 285 284 284 285 284 284 284 285 287 286 286 287 287 286 286
306 305 303 305 305 306 305 305 302 299 294 286 285 281 285 282 283 285 284 285 287 289 286 284 282 280 280 281 279 277 274 273 278 283 284 285 285 286 285 285 285 285 284 284 284 285 286 286 286 286 287 286 286 286
305 299 304 305 305 305 305 300 297 290 287 283 283 286 287 286 286 286 289 288 292 288 281 283 280 280 283 280 276 278 276 279 285 284 284 286 286 285 284 284 284 285 284 283 283 284 287 288 287 286 285 286 287 287
299 302 305 305 304 303 300 298 292 286 282 284 282 285 287 288 288 288 292 292 289 286 286 284 285 282 278 274 275 280 283 285 285 284 285 286 286 285 286 284 285 285 283 283 284 286 287 286 286 286 286 286 287 287
301 302 304 305 303 298 292 291 290 282 281 284 284 286 288 287 291 292 292 293 293 292 289 287 283 279 279 281 282 284 284 284 284 284 285 286 286 286 286 285 285 283 283 283 284 286 287 287 287 287 287 287 286 286
305 304 304 304 303 292 285 285 287 286 282 284 285 284 285 287 290 290 291 291 291 289 286 284 281 282 282 286 287 287 287 286 284 282 283 284 285 285 285 285 284 284 283 283 285 289 288 287 288 288 287 287 286 283
303 303 304 302 298 289 286 284 283 286 287 283 286 287 285 287 287 288 289 291 288 286 285 287 287 290 289 290 290 290 288 289 287 287 284 282 285 286 284 284 284 284 283 283 283 286 288 286 286 287 287 286 287 286
300 303 296 295 285 284 285 286 286 287 286 285 286 286 284 285 285 285 289 287 287 289 287 289 289 289 288 290 290 289 290 289 288 288 290 289 282 283 283 284 284 282 282 284 284 284 286 287 287 287 286 286 287 283
296 292 286 285 283 283 282 288 284 285 282 282 286 284 283 284 284 288 284 286 286 288 291 291 290 290 291 291 291 288 288 288 287 286 288 285 285 285 284 284 285 283 283 284 286 287 287 288 288 287 287 287 285 283
295 286 284 284 284 281 284 282 286 284 285 283 283 277 280 282 287 284 282 284 288 290 290 289 290 289 290 289 288 288 287 289 286 286 287 286 284 283 285 285 285 286 286 286 286 287 287 287 287 287 287 286 286 285
284 282 283 280 284 280 279 280 281 281 280 282 280 278 281 283 281 279 279 280 285 286 287 288 289 289 288 289 290 289 288 289 287 286 286 288 286 284 284 284 285 287 288 286 286 286 286 286 286 286 286 285 285 285
279 281 281 280 279 278 279 277 279 279 280 280 280 280 280 279 276 275 278 281 284 285 287 288 288 288 288 288 285 284 286 288 289 287 285 288 287 286 284 284 284 286 288 287 287 285 285 285 285 285 284 285 286 284
278 279 283 284 283 282 280 280 281 280 278 278 279 279 279 276 274 278 283 285 285 285 286 286 288 287 287 282 285 288 287 288 288 288 288 288 289 290 288 286 285 286 289 288 287 286 285 284 284 284 283 284 282 281
280 282 279 281 281 282 279 280 280 279 280 281 280 277 276 278 279 281 282 284 284 281 281 283 286 286 286 286 286 286 286 288 289 289 288 287 288 288 288 288 287 291 289 289 288 287 286 285 284 283 283 280 280 281
281 282 282 276 280 280 280 280 279 281 282 281 279 279 280 282 281 282 282 283 283 280 279 280 281 286 285 285 286 286 287 287 285 283 282 282 282 282 286 287 288 288 287 287 289 286 285 284 283 281 281 280 280 280
282 283 280 280 276 276 279 280 280 281 280 281 281 281 281 281 280 282 280 279 280 280 282 285 286 286 285 284 284 285 287 287 287 285 283 282 283 285 284 284 286 286 286 284 282 283 287 286 284 281 280 280 279 279
283 282 279 279 277 280 279 280 281 281 281 280 281 281 280 279 280 281 281 283 284 285 285 284 284 285 284 284 284 283 282 285 286 286 286 284 283 284 285 286 286 286 285 283 280 280 280 280 279 279 279 279 279 280
282 279 278 276 278 282 284 282 281 280 280 280 279 280 280 279 278 278 279 279 282 282 284 284 283 283 284 285 285 285 287 283 285 285 286 285 286 287 287 287 286 285 283 281 281 280 280 279 278 278 278 278 278 278
281 279 279 278 278 279 280 280 279 279 279 279 279 280 279 279 278 278 279 278 278 278 279 280 281 282 283 283 284 285 285 283 283 287 288 288 288 288 286 285 284 283 281 280 280 280 279 279 278 278 278 278 278 278

GFSWCAN_sfc_thetae_030.txt.gz
Theta_e
311 312 313 315 318 318 316 315 314 313 312 310 309 309 309 309 310 301 297 299 293 289 291 293 294 289 288 286 283 285 285 284 282 279 277 278 275 280 277 279 279 277 273 273 274 269 271 287 285 280 282 285 287 287
310 310 310 311 312 314 318 317 315 314 313 312 309 308 308 308 309 304 295 301 300 291 289 298 298 296 294 292 288 286 285 285 285 280 279 277 278 276 278 275 281 277 280 276 277 277 284 286 285 287 288 287 287 286
309 309 309 310 310 311 312 316 317 316 314 313 311 309 307 308 308 305 296 297 294 290 290 291 292 297 297 296 295 287 286 289 287 288 284 280 277 279 275 277 278 283 284 280 280 282 284 286 287 288 289 288 289 288
308 308 308 309 309 310 310 311 314 317 316 314 312 311 308 308 307 305 296 298 295 291 286 290 296 293 296 295 296 296 293 293 291 288 284 279 278 283 277 280 279 284 283 280 280 283 284 285 286 288 289 289 287 286
307 307 308 308 308 309 309 310 311 312 315 315 314 312 311 309 307 301 297 299 299 291 286 288 292 295 295 295 294 294 294 290 288 286 283 281 283 282 280 281 278 286 283 279 280 284 283 283 286 289 287 285 285 285
306 307 307 307 307 308 308 309 309 310 312 314 314 313 312 310 307 301 296 299 301 297 288 280 290 290 292 293 294 293 292 290 289 287 285 286 288 285 277 274 284 288 288 287 285 285 285 286 289 286 284 285 286 286
305 306 306 306 306 306 308 309 309 309 310 312 313 313 311 310 304 298 295 298 304 299 290 282 281 289 291 291 290 290 291 290 290 287 285 284 284 286 275 278 286 287 287 287 287 284 283 286 283 284 285 286 287 286
305 305 305 305 306 306 307 307 309 309 309 311 312 311 310 309 305 299 299 304 303 297 294 284 281 284 290 285 284 289 286 289 289 287 287 285 286 285 280 285 287 287 287 287 287 286 286 285 284 284 285 285 284 284
306 306 306 306 306 306 306 306 308 309 309 310 310 309 307 302 297 298 305 306 301 295 286 285 282 275 287 285 286 286 286 279 286 281 285 284 279 279 285 285 286 286 286 286 286 286 284 283 282 282 282 283 282 284
306 306 306 306 306 306 306 306 307 308 308 308 304 299 294 298 306 304 298 294 294 294 293 286 285 278 284 280 277 281 279 277 280 283 285 283 280 286 288 288 289 287 288 287 284 282 282 281 281 281 281 284 285 285
306 306 306 306 307 306 306 306 306 307 305 297 296 294 299 306 298 294 289 288 288 285 289 289 288 282 286 283 284 286 282 283 276 278 279 276 276 283 288 288 289 289 288 287 286 284 284 283 282 282 283 284 285 286
306 306 306 307 306 306 307 307 307 300 297 296 297 299 298 294 289 285 284 286 284 282 286 287 287 289 287 290 287 287 283 282 275 281 277 275 279 285 285 286 286 287 287 285 285 284 284 284 284 283 283 284 286 286
306 307 307 307 306 306 307 307 306 304 301 297 293 288 286 285 280 281 276 280 281 283 286 287 284 288 288 289 287 285 281 278 281 277 276 279 285 285 285 286 285 285 285 285 284 284 285 284 285 285 285 286 286 285
306 306 306 306 306 306 306 306 306 304 297 290 285 279 278 280 281 281 279 280 284 284 286 286 283 285 286 285 285 282 282 280 272 271 274 281 285 284 286 285 284 284 284 284 284 284 284 284 284 285 287 286 286 285
306 306 306 305 306 306 306 306 306 302 295 286 284 278 276 282 282 282 282 283 286 287 288 286 285 285 284 283 284 281 278 273 274 274 279 285 284 283 284 285 284 283 283 283 283 283 283 284 284 285 287 287 286 286
306 305 302 305 305 305 305 305 302 299 294 287 284 281 282 281 283 282 282 282 286 288 287 286 284 281 281 281 279 276 274 273 277 281 286 286 283 283 285 287 286 283 283 283 283 283 284 284 283 286 287 286 286 286
305 299 304 304 305 305 305 300 298 291 285 283 283 286 284 284 285 283 284 285 290 288 284 284 280 280 283 279 275 277 275 279 284 285 288 286 284 285 285 285 284 283 283 282 282 283 283 285 285 286 285 286 287 287
299 302 305 305 304 302 300 299 293 285 283 285 281 285 286 288 287 284 285 288 287 286 285 282 285 281 280 275 275 280 281 284 287 287 286 285 285 285 286 285 284 284 282 282 283 283 284 284 285 286 286 286 286 287
302 303 304 304 302 298 292 292 289 282 284 282 282 284 286 286 288 288 289 289 291 289 289 286 283 282 281 281 281 282 285 287 286 286 286 286 286 285 285 284 284 283 282 282 282 283 283 285 287 287 287 287 285 286
305 305 304 304 303 294 287 285 287 285 282 284 284 282 285 286 287 289 289 290 290 289 286 284 285 286 285 289 291 290 290 289 287 284 284 285 285 284 284 285 284 283 282 282 283 287 284 285 288 288 287 286 286 285
302 302 304 303 298 294 286 284 284 286 285 282 284 286 284 285 285 285 286 290 288 287 286 288 288 290 292 292 290 289 288 289 287 288 285 285 285 285 283 283 283 283 283 282 282 283 287 284 287 287 287 286 287 286
300 303 298 299 286 284 284 286 285 286 286 285 283 284 282 281 282 284 287 286 285 288 289 289 290 291 291 291 291 291 292 290 289 288 291 288 282 281 282 284 283 283 283 283 283 283 283 285 287 287 286 286 287 286
298 293 287 285 283 283 282 288 284 284 282 282 284 282 283 283 283 288 285 286 288 291 292 292 292 293 291 292 293 292 290 289 288 287 288 286 285 286 285 284 285 284 282 282 284 284 284 288 288 287 287 287 286 285
295 287 284 283 283 280 283 282 286 284 284 284 283 281 281 283 286 284 282 282 288 290 290 291 291 290 291 289 287 289 289 289 289 288 288 286 284 284 286 286 285 285 285 284 285 284 285 287 288 287 286 286 286 285
284 282 284 281 283 280 279 281 282 282 280 282 279 278 281 285 282 282 280 281 283 286 288 288 288 289 288 289 290 290 292 290 288 288 288 288 287 284 283 283 283 284 286 285 284 285 285 287 286 286 286 285 284 285
280 281 281 279 279 279 278 278 278 279 280 280 280 280 280 281 278 275 277 280 280 281 282 284 285 286 287 289 289 287 288 290 290 289 288 287 288 287 284 282 282 282 286 287 286 285 286 286 285 285 285 285 286 285
278 279 283 284 283 281 280 280 280 279 279 277 280 279 279 275 274 278 281 282 279 281 285 287 288 288 289 289 289 289 289 290 289 288 287 288 288 289 288 285 284 287 288 288 287 287 286 285 284 284 284 284 284 283
281 282 280 281 281 281 278 279 279 278 279 280 281 277 276 276 275 279 281 282 280 280 281 283 287 286 286 286 286 286 285 287 287 288 288 287 288 288 289 289 289 291 289 288 287 288 286 285 284 284 284 283 283 281
280 281 282 275 277 278 277 279 278 280 281 280 278 278 278 280 279 278 280 282 283 283 280 280 281 285 284 284 284 284 285 286 284 284 283 282 281 282 287 288 289 289 288 289 290 289 286 286 285 284 284 282 280 280
279 282 279 278 274 276 279 280 280 281 281 281 281 280 279 278 278 279 277 278 278 278 278 279 280 283 282 283 283 285 286 287 288 286 284 283 284 283 284 285 285 285 287 287 286 286 289 287 286 285 283 280 280 279
282 281 278 279 278 279 279 280 280 280 280 279 280 280 278 278 279 279 277 280 283 285 284 284 284 285 284 284 284 283 282 285 286 286 286 286 285 285 284 284 285 285 286 284 283 283 283 282 282 280 279 279 279 280
281 279 277 276 278 282 282 280 279 280 280 279 278 279 278 278 277 278 278 280 283 282 284 284 283 283 284 285 285 285 287 284 284 286 286 285 283 284 285 285 286 286 284 283 282 281 281 280 279 278 278 279 278 278
281 279 278 279 279 279 281 278 279 278 278 278 278 279 279 279 278 278 280 279 279 279 279 280 281 282 281 282 282 283 285 282 283 287 288 288 288 288 286 286 286 285 283 281 281 281 280 279 279 279 279 278 278 278